This is the latest recevied weather packets stored in our database for station/object SQ7IQO. If no packets are shown the sender has not sent any weather packets the latest 10 day(s).
| Time | Temp. | Humidity | Pressure | Rain* | Wind** | Luminosity | Snow |
|---|---|---|---|---|---|---|---|
| 1787484592 | 18.89° C | - | - | 0 mm | 0.89 m/s, ° | - | - |
| 1787484532 | 18.89° C | - | - | 0 mm | 0.89 m/s, ° | - | - |
| 1787484472 | 18.89° C | - | - | 0 mm | 0.89 m/s, ° | - | - |
| 1787484412 | 18.89° C | - | - | 0 mm | 0.45 m/s, ° | - | - |
| 1787484353 | 18.33° C | - | - | 0 mm | 0 m/s | - | - |
| 1787484293 | 18.33° C | - | - | 0 mm | 0.89 m/s, ° | - | - |
| 1787484233 | 17.78° C | - | - | 0 mm | 0.89 m/s, ° | - | - |
| 1787484173 | 18.89° C | - | - | 0 mm | 2.24 m/s, ° | - | - |
| 1787484113 | 18.89° C | - | - | 0 mm | 2.24 m/s, ° | - | - |
| 1787484053 | 18.33° C | - | - | 0 mm | 0.89 m/s, ° | - | - |
| 1787483992 | 18.33° C | - | - | 0 mm | 0.45 m/s, ° | - | - |
| 1787483933 | 17.78° C | - | - | 0 mm | 0.89 m/s, ° | - | - |
| 1787483872 | 17.22° C | - | - | 0 mm | 1.79 m/s, ° | - | - |
| 1787483813 | 17.22° C | - | - | 0 mm | 1.79 m/s, ° | - | - |
| 1787483753 | 17.22° C | - | - | 0 mm | 2.24 m/s, ° | - | - |
| 1787483692 | 17.22° C | - | - | 0 mm | 0.89 m/s, ° | - | - |
| 1787483633 | 16.67° C | - | - | 0 mm | 1.79 m/s, ° | - | - |
| 1787483573 | 17.22° C | - | - | 0 mm | 2.68 m/s, ° | - | - |
| 1787483513 | 17.22° C | - | - | 0 mm | 1.79 m/s, ° | - | - |
| 1787483453 | 17.78° C | - | - | 0 mm | 2.68 m/s, ° | - | - |
| 1787483393 | 17.78° C | - | - | 0 mm | 1.79 m/s, ° | - | - |
| 1787483333 | 17.78° C | - | - | 0 mm | 1.34 m/s, ° | - | - |
| 1787483273 | 17.78° C | - | - | 0 mm | 0.89 m/s, ° | - | - |
| 1787483213 | 18.33° C | - | - | 0 mm | 0.89 m/s, ° | - | - |
| 1787483153 | 18.33° C | - | - | 0 mm | 0.89 m/s, ° | - | - |
* Rain latest hour (hover to see other rain measurements)
** Current wind speed in m/s (hover to see current wind gust speed)